Lapse_Rate
5.0 5.0 5.1 5.2 5.4 5.4 5.5 5.5 5.5 5.7 5.8 5.7 5.6 5.5 5.2 4.9 4.5 4.4 4.3 4.1 4.2 4.2 4.1 4.1 4.2 4.2 4.3
5.0 5.1 5.2 5.4 5.5 5.6 5.6 5.7 5.8 5.8 5.6 5.5 5.2 4.9 4.4 4.1 3.9 3.7 3.6 3.6 3.5 3.5 3.5 3.4 3.4 3.5 3.6
5.4 5.5 5.8 5.8 5.7 5.8 5.9 5.9 5.7 5.6 5.3 4.9 4.5 4.2 3.9 3.7 3.7 3.5 3.3 3.2 3.1 2.9 2.7 2.6 2.6 2.5 2.6
5.5 5.7 5.6 5.8 5.8 5.9 6.0 5.9 5.5 5.2 4.8 4.4 4.1 3.9 3.9 3.7 3.6 3.3 3.0 2.8 2.5 2.2 2.0 1.9 1.8 1.9 2.1
5.6 5.7 5.6 5.6 5.6 5.7 5.6 5.4 4.8 4.8 4.6 4.2 3.8 4.0 3.9 3.7 3.3 3.0 2.9 2.6 2.4 2.3 2.3 2.4 2.6 2.8 2.8
5.4 5.6 5.7 5.5 5.5 5.3 5.2 4.9 4.8 4.7 4.7 4.8 4.1 4.0 3.7 3.6 3.5 3.6 3.7 3.6 3.5 3.6 3.8 4.0 4.1 4.1 4.2
5.7 5.6 5.5 5.3 5.0 5.1 4.6 4.6 4.7 4.5 4.3 4.3 3.8 3.7 3.8 4.2 4.4 4.6 4.5 4.6 4.8 5.0 5.1 5.3 5.5 5.5 5.4
5.9 5.5 5.2 4.9 4.7 4.6 4.9 5.0 4.7 4.4 4.0 3.7 3.4 4.0 4.6 5.0 5.2 5.5 5.5 5.6 5.8 6.1 6.3 6.3 6.3 6.0 5.6
5.5 5.3 4.8 4.7 4.8 5.1 5.0 4.6 4.5 4.3 4.3 3.9 4.4 4.8 5.2 5.8 6.2 6.6 6.7 6.7 6.6 6.6 6.8 6.6 6.5 6.3 6.3
5.1 4.8 4.8 4.9 4.9 4.7 4.4 4.3 4.1 4.3 4.8 4.5 5.0 5.3 5.8 6.5 6.9 6.8 6.8 7.0 7.3 7.4 7.2 7.0 7.1 6.9 6.8
5.1 5.0 5.0 4.9 4.8 4.5 4.2 4.1 4.3 4.5 4.7 4.8 5.5 5.8 6.0 6.3 6.7 6.9 6.9 7.3 7.6 7.6 7.4 7.5 7.5 7.0 6.7
5.1 5.1 4.9 4.7 4.6 4.3 4.2 4.3 4.6 4.9 5.4 5.7 5.9 6.0 6.2 6.4 6.8 7.1 7.2 7.6 7.6 7.7 7.5 7.5 7.5 7.0 6.7
5.0 4.8 4.7 4.4 4.2 4.1 4.3 4.7 5.4 5.6 5.6 5.8 6.0 6.2 6.3 6.5 6.8 7.2 7.4 7.8 7.6 7.6 7.4 7.3 7.2 6.7 6.9
4.8 4.6 4.3 4.1 4.0 4.1 4.7 5.5 5.9 5.9 5.8 5.9 6.1 6.3 6.6 6.6 7.0 7.2 7.3 7.3 7.5 7.2 7.2 7.4 7.1 6.5 6.8
4.4 4.2 4.1 4.0 4.0 4.6 5.2 5.5 5.7 5.9 6.2 6.3 6.3 6.5 6.6 6.7 7.1 7.1 7.2 7.1 7.2 7.2 7.3 7.3 7.0 6.5 7.1
4.1 4.0 4.0 4.0 4.6 5.3 5.3 5.5 5.8 6.0 6.4 6.5 6.7 7.0 7.2 7.4 7.1 7.3 7.2 7.1 7.3 7.3 7.1 7.0 7.1 6.8 7.0
4.1 3.9 3.9 4.5 5.2 5.3 5.4 5.6 5.8 6.1 6.5 6.8 6.8 7.0 7.3 7.5 7.5 7.0 6.9 7.0 7.2 7.3 7.1 7.0 7.0 7.0 7.2
Wind_Speed
1 1 2 3 4 5 7 6 12 12 13 16 15 18 18 18 23 22 21 22 23 22 24 25 26 28 28
1 1 0 1 1 2 4 5 10 10 15 17 15 16 18 23 21 22 22 23 22 24 24 26 28 29 28
1 1 1 1 2 3 3 7 10 11 15 15 17 18 23 21 21 21 23 21 23 25 28 28 28 28 30
1 1 1 2 1 1 3 2 3 12 15 14 19 21 20 21 19 22 21 23 25 27 25 26 28 30 30
1 2 2 3 2 2 2 3 4 4 4 14 15 15 16 15 18 20 24 26 26 23 25 27 28 30 31
1 1 3 1 1 2 2 2 3 3 4 8 10 6 14 16 20 26 27 25 22 24 27 28 30 31 32
3 3 2 2 2 2 4 2 3 3 3 8 4 6 14 15 24 26 22 21 26 29 28 31 31 33 33
2 2 5 10 6 4 3 3 3 4 4 6 4 7 14 17 22 20 17 23 29 29 31 31 32 31 31
8 9 11 11 10 3 3 3 3 3 2 2 3 10 8 8 13 10 25 24 27 28 30 30 30 30 24
7 11 9 7 11 8 3 1 2 5 1 5 5 3 6 2 9 20 16 20 26 29 28 27 26 21 18
3 3 5 7 9 12 10 3 5 5 8 7 5 5 4 9 3 12 15 17 19 21 23 24 26 26 11
2 2 2 2 4 10 10 9 10 10 16 12 3 5 6 9 10 6 12 15 16 11 16 23 25 26 27
1 1 2 6 10 10 10 11 14 17 16 17 8 7 5 8 9 10 13 6 15 5 14 11 9 18 12
1 2 3 3 3 5 3 4 4 6 15 18 17 9 6 7 8 11 9 7 9 9 9 11 15 17 15
1 3 4 5 5 3 3 3 6 6 6 8 14 15 12 10 9 9 9 8 8 8 9 9 10 11 12
4 3 4 5 5 3 2 3 5 6 7 7 6 4 5 7 15 8 6 5 7 8 7 7 9 10 15
4 3 4 4 8 4 4 6 8 7 7 7 3 5 9 11 7 14 8 8 8 7 6 6 9 11 9
Wind_Direction
109 72 47 26 27 27 16 26 2 352 350 343 338 334 335 337 336 334 334 336 331 329 329 327 329 325 322
259 344 333 300 281 293 346 351 345 346 337 331 331 330 333 330 330 331 333 330 328 327 328 329 325 321 321
304 331 294 353 334 346 355 338 347 342 330 329 326 330 327 327 326 330 328 324 327 330 325 321 322 324 321
57 327 360 339 44 317 336 333 311 332 320 330 330 321 322 326 327 323 320 326 326 322 324 326 322 318 315
50 36 329 339 357 320 283 293 294 284 326 319 313 308 313 321 320 319 323 321 321 322 325 322 320 316 314
128 182 256 285 313 279 273 299 331 328 328 310 306 296 314 317 319 319 317 320 321 325 324 322 321 318 316
179 210 232 234 215 265 262 268 260 276 308 305 308 300 303 305 312 314 318 321 324 322 322 319 318 317 314
156 252 248 277 244 243 249 265 276 278 300 293 305 297 303 300 304 312 317 320 319 320 317 318 316 314 313
13 352 332 327 328 13 333 337 305 303 282 296 311 308 303 300 296 320 315 315 316 315 315 316 316 318 315
353 339 337 335 355 17 12 339 324 311 237 327 301 324 316 297 331 303 299 304 315 314 315 318 318 315 312
329 329 354 13 25 2 348 323 310 286 302 316 317 311 273 304 282 299 298 312 305 305 308 314 318 318 313
30 29 23 336 322 322 311 305 297 278 296 292 256 282 288 297 302 304 309 304 299 300 304 314 315 315 314
70 263 245 280 299 301 298 295 300 292 290 287 273 276 270 284 291 304 309 308 297 288 308 307 310 309 310
257 267 303 323 314 303 307 309 294 291 288 279 275 265 278 275 284 293 295 295 303 299 298 303 306 301 296
357 334 330 316 303 307 290 291 296 296 294 297 295 272 260 270 284 279 288 288 288 292 309 310 307 297 296
335 318 307 301 295 293 276 279 285 294 290 293 293 304 296 266 265 279 284 272 287 298 299 300 305 312 310
298 289 284 288 314 288 293 300 305 295 285 285 285 300 308 311 299 291 295 292 293 296 289 289 295 303 303